Skip Page Navigation
NASA JPL Caltech
NASA Logo - Jet Propulsion Laboratory + View the NASA Portal
+ Center for Near-Earth Object Studies
JPL Home Earth Solar System Stars & Galaxies Technology
JPL Solar System Dynamics
BODIES ORBITS EPHEMERIDES TOOLS PHYSICAL DATA DISCOVERY FAQ SITE MAP
IMPORTANT: The SSD Announcement email list is now available. Major changes are coming in the near future, including possible hostname and/or URL changes. To be notified of such changes, subscribe to this email list.

Please visit this page for more details.


JPL Small-Body Database Browser
Search: [ help ]  
(2020 BX12)
Classification: Apollo [NEO, PHA]          SPK-ID: 3989285
Ephemeris | Orbit Diagram | Orbital Elements | Mission Design | Physical Parameters | Close-Approach Data ]

[ hide orbit diagram ]

For accurate long-term ephemerides, please instead use our Horizons system.This orbit viewer was implemented using two-body methods, and hence should not be used for determining accurate long-term trajectories (over several years or decades) or planetary encounter circumstances.


[ revert to old Java-based viewer ]

Orbital Elements at Epoch 2459000.5 (2020-May-31.0) TDB
Reference: JPL 12 (heliocentric ecliptic J2000)
 Element Value Uncertainty (1-sigma)   Units 
e .526962965839166 3.6515e-08  
a 1.600386474117796 7.2259e-09 au
q .7570420712277965 5.8978e-08 au
i 40.06745558244322 1.8256e-05 deg
node 132.9035393442575 2.4324e-06 deg
peri 70.49213369615909 8.4311e-06 deg
M 34.44175237175406 1.6451e-06 deg
tp 2458929.751298334835
(2020-Mar-21.25129833)
3.4095e-06 TDB
period 739.4958399488196
2.02
5.0084e-06
1.371e-08
d
yr
n .4868181544130329 3.2971e-09 deg/d
Q 2.443730877007796 1.1034e-08 au
  Orbit Determination Parameters
   # obs. used (total)      149  
   data-arc span      2224 days (6.09 yr)  
   first obs. used      2014-01-05  
   last obs. used      2020-02-07  
   planetary ephem.      DE431  
   SB-pert. ephem.      SB431-N16  
   condition code      0  
   norm. resid. RMS      .46024  
   source      ORB  
   producer      Otto Matic  
   solution date      2020-Feb-27 10:09:13  

Additional Information
 Earth MOID = .00206089 au 
 Jupiter MOID = 3.13769 au 
 T_jup = 3.973 
[ show covariance matrix ]

Ephemeris | Orbit Diagram | Orbital Elements | Mission Design | Physical Parameters | Close-Approach Data ]

Physical Parameter Table
Parameter Symbol Value Units Sigma Reference Notes
absolute magnitude H 20.634   .39605 12 autocmod 2.8

